Location: Caltech
(34.1382°N, 118.1253°W)
Time: 21:10:24
(UTC-07:00)

Iridium 94 - Visible Passes

Search period start: 26 June 2016 00:00
Search period end: 06 July 2016 00:00
Orbit: 775 x 779 km, 86.4° (Epoch: 26 June)

Date Brightness Start Highest point End Pass type
(mag) Time Alt. Az. Time Alt. Az. Time Alt. Az.
26 Jun 5.5 21:05:46 10° N 21:11:00 80° E 21:16:13 10° S visible
27 Jun 6.1 20:32:32 10° NNE 20:37:26 40° E 20:42:18 10° SSE visible
27 Jun 8.0 22:14:16 10° NW 22:17:45 18° W 22:21:14 10° SW visible
28 Jun 7.0 21:39:47 10° NNW 21:44:29 35° W 21:49:10 10° SSW visible
29 Jun 5.9 21:05:54 10° N 21:11:04 69° W 21:16:15 10° S visible
30 Jun 5.6 20:32:25 10° N 20:37:34 61° E 20:42:42 10° SSE visible
30 Jun 8.3 22:15:42 10° WNW 22:17:39 12° W 22:19:35 10° W visible
01 Jul 7.7 21:40:21 10° NNW 21:44:26 24° W 21:48:31 10° SW visible
02 Jul 6.6 21:06:09 10° NNW 21:11:07 45° W 21:16:03 10° SSW visible
03 Jul 5.6 20:32:26 10° N 20:37:41 89° W 20:42:53 10° S visible
04 Jul 8.2 21:41:17 10° NW 21:44:21 16° W 21:47:27 10° WSW visible
05 Jul 7.4 21:06:34 10° NNW 21:11:06 31° W 21:15:37 10° SW visible
